Location: Newark
(49.2191°N, 12.6671°E)
Time: 02:55:00
(UTC+00:00)

deb Explorer IX - Visible Passes

Search period start: 20 January 2020 00:00
Search period end: 30 January 2020 00:00
Orbit: 548 x 1101 km, 38.8° (Epoch: 19 January)

Date Brightness Start Highest point End Pass type
(mag) Time Alt. Az. Time Alt. Az. Time Alt. Az.
20 Jan ? 03:11:07 12° SSE 03:11:07 12° SSE 03:11:44 10° SSE visible
20 Jan ? 04:52:29 10° SW 04:52:33 10° SW 04:53:04 10° SSW visible
27 Jan ? 18:45:18 10° S 18:45:32 10° S 18:45:32 10° S visible
28 Jan ? 18:22:58 10° S 18:24:41 13° SSE 18:24:41 13° SSE visible
29 Jan ? 18:00:40 10° S 18:03:30 13° SE 18:03:46 13° SE visible
29 Jan ? 19:43:49 10° SW 19:45:08 15° SSW 19:45:08 15° SSW visible
